Theta_e
312 309 305 304 303 303 303 303 303 304 305 306 306 307 308 308 310 323 329 325 327 325 325 342 342 342 339 339 342 344 344 349 346 343 339 340 340 345 348 348 353 352 351 352 352
311 309 303 302 302 303 303 303 303 304 305 307 306 307 308 308 317 323 323 324 326 325 327 331 339 340 338 339 342 343 348 347 345 344 341 340 340 342 344 347 349 352 351 350 353
310 306 301 300 301 301 302 301 302 303 305 306 307 307 307 308 325 326 325 323 323 324 323 327 333 337 337 339 340 343 346 344 345 343 342 340 340 339 344 345 347 355 353 351 352
306 301 300 300 300 300 301 301 301 302 304 306 306 307 307 319 325 327 321 321 321 324 325 326 331 334 336 339 339 340 342 343 343 341 343 340 340 340 342 344 346 351 352 351 352
308 303 300 300 299 300 300 300 301 302 304 305 306 306 315 324 328 325 321 321 324 327 327 330 331 334 334 336 337 335 341 341 339 340 341 341 342 341 340 343 345 347 351 352 351
304 301 300 300 300 300 300 300 301 302 304 305 306 307 323 321 324 325 326 328 327 325 327 331 330 332 333 334 335 335 336 338 337 338 340 344 342 340 340 341 345 347 349 351 351
303 303 300 299 299 300 300 301 302 303 304 305 308 317 321 320 325 325 325 328 326 328 326 328 329 330 332 332 333 334 336 336 336 337 340 341 344 343 341 340 345 347 347 349 350
302 301 300 299 299 299 300 302 303 304 306 312 315 324 322 320 324 325 325 326 326 328 327 327 327 328 330 330 331 332 334 337 337 338 339 341 346 341 342 341 343 347 347 348 348
304 303 300 299 300 300 301 303 305 309 315 319 324 327 326 325 326 327 326 325 325 325 327 327 327 326 327 329 330 332 335 336 337 339 339 340 348 345 344 343 343 345 347 347 349
304 304 303 300 300 300 302 306 312 314 324 324 325 330 330 328 328 326 325 325 327 327 326 328 327 328 326 329 331 333 335 337 338 341 339 340 350 345 345 343 344 343 346 349 347
303 304 304 302 300 300 304 316 324 328 327 330 330 325 326 328 326 328 328 328 327 326 327 328 327 328 330 329 331 332 337 337 338 343 340 346 353 349 344 347 343 346 345 348 349
303 304 304 302 301 302 307 319 317 316 316 318 322 327 328 328 328 329 327 328 326 326 327 326 326 326 329 331 331 333 335 338 339 342 343 343 353 348 351 349 347 344 345 345 345
304 304 304 302 302 312 315 312 315 315 316 318 319 320 324 328 327 326 327 328 325 325 328 326 326 326 328 330 332 333 334 337 338 341 341 340 343 349 350 347 346 346 344 344 346
302 303 304 303 311 309 312 315 313 314 316 320 323 322 322 323 323 324 325 327 327 326 325 327 327 326 326 329 332 333 333 335 336 342 345 343 345 351 347 352 348 347 346 345 346
303 303 304 302 306 311 313 313 312 314 322 327 325 325 324 323 325 324 324 324 324 325 327 325 327 326 325 327 330 333 334 334 335 338 346 348 348 348 350 352 353 350 348 347 347
303 303 303 306 308 311 312 312 313 318 322 326 326 325 324 324 327 328 324 325 326 324 327 327 327 327 326 327 328 331 333 333 334 337 342 344 346 346 349 348 346 350 350 349 349
303 304 304 306 309 310 311 313 316 320 325 326 327 327 328 327 325 328 327 327 326 325 327 327 327 327 327 326 327 328 331 337 337 339 341 340 347 350 349 347 346 345 349 351 351
304 304 308 309 311 312 311 313 318 322 322 327 327 327 327 329 328 327 328 328 326 326 327 328 328 327 327 326 327 327 329 336 340 340 339 340 342 345 348 346 345 346 347 349 351
304 308 309 310 312 312 314 312 318 321 324 325 326 326 327 327 327 327 328 328 326 326 329 327 328 329 327 328 326 327 328 330 333 335 338 338 339 338 341 346 344 342 343 344 350
305 308 313 313 312 312 314 315 316 318 321 323 324 325 326 328 327 328 328 329 328 327 327 328 329 329 329 328 327 327 328 328 331 339 342 339 342 344 344 347 347 346 344 341 342
307 312 311 312 313 316 316 315 316 316 317 317 319 321 324 326 328 328 327 328 328 329 328 327 329 329 330 329 328 326 327 328 330 334 339 343 342 343 349 349 348 345 342 341 341
308 311 312 314 316 317 318 317 315 317 318 319 319 319 320 321 326 327 328 328 328 328 328 329 328 331 329 330 328 328 328 327 329 338 335 337 340 338 344 344 341 342 341 341 341
308 309 308 309 313 313 314 315 317 318 319 320 319 319 319 319 323 323 326 327 328 327 328 329 330 333 329 330 331 329 327 327 326 329 337 338 338 337 339 341 344 342 342 344 343
308 309 310 311 311 312 312 313 313 314 316 317 319 320 320 320 320 321 322 324 326 327 336 329 329 334 333 333 331 332 329 328 328 328 331 333 339 338 342 342 342 343 343 343 347
307 309 309 311 312 312 314 315 315 316 315 317 318 318 319 320 319 319 319 320 324 328 329 328 333 332 330 329 331 331 329 328 329 330 332 331 333 340 340 343 341 341 343 344 346
307 308 310 310 309 309 308 311 311 314 314 313 316 316 317 319 320 321 320 323 324 325 326 326 333 332 333 331 331 332 331 329 328 329 330 330 331 333 337 337 344 341 342 344 344
304 305 308 308 308 308 307 307 310 310 311 312 311 313 316 317 317 317 317 319 322 325 330 330 329 337 336 332 332 333 333 331 330 327 328 329 331 333 334 338 341 346 342 343 343
Wind_Speed
25 24 23 21 21 21 21 23 23 23 23 24 25 24 22 24 25 10 12 16 19 23 10 9 15 21 18 14 19 19 8 9 7 8 14 8 14 8 18 14 22 3 24 29 36
25 26 25 25 23 21 21 24 25 24 23 23 24 25 24 25 20 25 33 26 21 15 13 18 16 17 15 16 17 5 6 5 21 5 12 11 13 12 11 13 11 19 26 31 35
26 26 27 27 26 24 24 26 26 24 24 23 23 24 23 21 13 14 6 16 20 25 21 21 22 17 18 15 18 9 2 15 23 15 12 10 16 11 17 11 16 25 24 23 28
27 26 28 29 28 26 27 27 28 27 25 23 23 24 22 6 6 8 14 6 1 22 23 25 20 19 18 16 18 11 17 17 6 7 12 13 16 11 14 13 20 22 23 23 21
27 27 29 30 29 29 28 29 30 29 27 24 23 22 9 10 23 14 12 8 6 15 24 21 20 19 20 17 20 17 21 20 6 8 6 11 15 15 8 19 21 21 24 23 20
29 29 30 31 30 31 31 34 33 31 29 25 22 13 6 17 15 12 12 10 14 19 23 23 18 17 20 20 21 18 12 12 7 8 8 13 16 14 13 16 20 21 23 22 22
33 31 31 32 33 33 33 36 34 31 29 24 14 5 11 24 16 9 11 15 15 19 20 25 23 18 20 20 21 21 19 8 9 12 8 12 16 11 19 15 20 19 21 21 22
34 34 33 34 36 36 38 35 30 28 25 13 6 7 10 19 21 22 16 18 17 20 21 22 23 20 20 18 22 22 19 15 18 17 10 13 14 14 21 16 19 21 19 20 21
34 34 34 35 38 37 42 35 25 19 10 3 5 10 11 8 20 20 20 20 19 18 19 20 20 20 19 18 18 21 17 21 20 13 15 15 5 5 18 18 19 19 19 19 18
35 36 36 37 38 39 40 27 18 8 2 6 14 9 17 16 17 18 19 21 16 15 17 17 13 15 18 17 16 20 20 18 17 18 18 18 12 10 25 18 17 19 19 19 20
34 37 38 39 36 37 31 10 4 5 10 13 10 13 13 20 22 14 15 19 18 17 18 19 15 20 25 25 22 23 20 22 15 11 17 18 12 16 29 20 20 19 18 19 20
35 37 40 39 36 26 12 8 14 11 14 20 28 27 35 14 11 15 16 15 18 19 20 19 24 24 24 25 26 27 26 23 14 19 20 18 25 28 29 23 21 21 19 19 20
37 38 41 40 33 11 13 22 14 15 10 18 30 28 31 26 23 20 21 19 17 22 23 23 22 23 25 26 27 26 25 22 20 18 23 16 15 23 28 22 18 19 21 20 20
37 37 39 44 12 23 13 8 9 13 7 11 19 22 26 28 30 27 26 23 20 23 24 24 25 25 27 29 27 26 24 26 24 13 13 15 11 12 18 21 20 21 19 22 21
37 37 36 33 24 10 16 15 17 13 7 3 18 5 13 26 6 30 34 26 27 26 21 24 26 27 27 31 29 26 26 25 24 21 19 20 13 12 24 21 25 22 22 22 21
38 39 41 20 12 22 19 19 11 6 11 8 11 13 19 22 23 16 25 27 25 27 26 26 21 27 27 25 29 26 23 24 22 19 17 18 15 19 15 19 19 22 21 21 21
39 42 42 23 10 12 14 8 6 11 8 14 17 16 22 22 27 17 23 26 22 24 24 26 27 25 25 26 26 29 23 16 18 17 17 20 21 11 20 23 21 4 12 22 21
40 41 29 21 20 18 13 8 16 12 27 15 13 20 22 23 25 25 21 22 27 25 18 21 21 26 23 29 25 27 27 17 21 18 19 22 22 17 24 23 11 16 38 25 24
42 27 26 22 24 16 9 15 11 21 17 18 22 19 23 25 25 25 26 23 25 28 24 19 25 20 30 23 27 27 26 27 26 22 18 18 18 23 17 18 18 26 21 18 24
29 31 24 21 18 17 12 29 18 26 23 21 23 22 26 25 28 26 26 27 25 27 26 25 20 21 23 26 29 30 19 23 20 25 25 20 23 11 19 16 20 12 19 13 11
19 8 22 2 17 9 17 23 27 33 33 30 28 28 28 25 27 28 28 24 27 25 26 24 22 20 23 26 26 18 22 24 21 20 17 17 17 15 16 15 19 19 16 15 12
13 9 11 6 11 11 18 27 26 31 32 29 29 31 30 29 27 27 29 27 23 21 26 26 17 19 26 25 28 29 29 27 17 21 19 20 16 17 7 10 10 11 15 13 15
8 13 29 27 15 15 23 30 29 29 29 32 32 30 26 30 27 29 27 26 25 27 25 20 21 16 24 24 25 30 28 25 26 21 21 19 16 21 6 4 11 13 16 12 3
5 6 10 11 17 24 23 26 27 27 26 29 24 28 31 28 28 27 27 29 20 22 7 8 18 26 18 21 18 25 30 28 26 18 21 22 20 25 12 14 11 11 14 9 5
4 7 15 10 17 8 16 22 21 25 23 20 16 19 19 21 26 27 28 29 26 23 14 15 16 21 28 29 25 25 29 29 27 26 22 21 27 18 22 15 18 14 8 8 5
4 7 10 15 22 23 12 19 20 25 19 19 12 22 20 19 15 17 21 24 24 25 19 22 17 18 24 25 27 24 27 28 29 29 27 26 25 21 20 21 8 15 11 13 11
6 12 5 11 18 16 17 20 17 23 20 19 17 17 17 16 22 25 25 27 26 21 22 20 17 16 21 25 23 24 26 22 23 24 25 22 23 17 19 15 14 9 11 15 13
Wind_Direction
354 352 349 348 346 343 339 338 335 333 328 327 327 324 323 316 309 292 254 238 241 242 261 230 229 246 251 252 267 243 298 268 135 66 116 169 100 80 103 128 115 223 144 148 141
353 352 351 348 344 340 335 333 330 327 324 322 323 323 324 319 308 274 257 251 251 223 219 223 221 235 251 243 247 234 297 40 259 172 133 163 131 113 130 152 128 134 135 143 151
351 352 352 348 344 339 334 331 328 323 321 318 318 320 325 325 283 269 196 215 226 230 234 236 238 238 249 258 258 145 206 284 291 122 215 152 129 147 133 177 130 130 142 152 162
350 351 349 346 342 338 334 330 326 323 318 314 314 316 325 309 276 134 154 178 281 221 228 238 235 240 241 248 256 206 180 242 309 169 168 164 134 150 152 171 146 141 150 162 168
346 346 345 344 342 338 333 329 324 320 314 311 310 312 337 249 253 232 185 206 194 193 211 224 226 230 242 241 253 235 194 232 190 145 215 165 141 133 143 138 145 145 156 169 174
346 344 342 342 341 337 331 326 322 315 309 306 304 310 252 263 255 183 193 192 207 200 215 226 227 228 244 247 254 252 240 260 245 212 212 186 144 138 144 141 152 152 165 174 179
350 345 342 341 338 334 327 323 318 309 303 305 293 245 257 247 273 185 218 204 208 204 215 225 236 236 237 254 255 265 270 224 253 261 179 235 149 175 145 166 155 162 170 175 182
350 346 341 338 335 331 326 319 311 302 303 294 253 216 257 259 252 247 220 223 233 212 221 224 225 249 250 249 258 258 257 254 223 203 180 203 189 172 153 172 166 164 175 177 185
346 344 339 335 332 330 325 316 304 297 298 213 198 218 265 251 229 228 221 222 218 228 226 228 228 224 238 248 247 243 244 234 251 178 165 194 139 115 161 170 175 173 177 181 183
344 342 339 332 332 331 321 315 290 291 264 232 260 252 240 234 209 214 211 216 222 208 215 216 224 226 221 227 231 233 230 234 215 205 185 178 90 36 278 183 194 180 180 184 187
341 339 337 332 328 331 327 335 232 190 217 239 206 224 274 211 234 194 195 200 218 206 207 204 213 215 217 219 230 249 237 231 226 193 207 168 139 159 244 225 196 183 192 185 188
340 340 337 331 327 324 301 279 336 320 295 257 253 252 256 242 199 202 217 204 212 208 206 209 221 223 218 214 228 244 256 252 222 190 210 203 167 158 219 207 191 189 190 197 192
337 339 339 331 326 312 284 291 297 318 287 275 235 234 227 239 242 225 216 205 213 217 207 225 217 224 222 218 217 235 244 253 256 195 196 209 217 183 195 185 190 192 192 196 195
335 336 338 337 319 329 289 351 321 320 279 266 216 227 220 221 233 228 225 215 222 225 227 228 236 212 226 221 220 227 233 252 265 159 214 231 220 236 225 190 193 189 199 195 195
333 332 334 331 292 288 314 328 321 284 281 109 182 203 197 200 233 208 212 221 227 224 233 231 228 233 212 224 222 232 230 237 255 263 196 203 230 267 211 192 187 194 197 201 191
328 327 328 329 265 264 285 298 290 239 243 245 147 183 184 201 215 163 192 219 220 228 230 240 232 228 236 216 229 229 239 248 244 252 255 213 212 252 217 197 238 192 201 201 193
326 322 315 280 256 330 329 272 225 231 236 229 182 192 208 195 212 178 188 201 211 212 223 228 236 235 224 232 212 231 225 234 238 237 249 242 204 211 239 205 219 111 288 195 195
326 322 304 263 259 273 258 235 231 238 222 279 253 196 209 208 208 214 197 213 211 213 219 221 224 227 220 225 223 215 228 227 228 231 241 235 248 223 178 196 197 196 209 191 192
327 319 293 267 233 230 239 226 227 227 273 238 257 254 213 218 226 209 201 214 214 215 227 223 224 229 224 218 222 214 224 226 240 240 247 246 232 233 240 185 169 230 205 204 191
317 303 277 253 242 204 229 234 239 257 270 281 267 269 249 215 219 223 212 208 217 217 220 243 260 220 210 224 221 228 215 221 234 239 241 240 251 237 221 192 184 217 271 210 204
306 297 283 260 179 220 235 245 248 265 275 278 282 271 265 241 240 226 227 232 215 217 214 223 248 248 213 203 222 214 228 234 230 238 246 245 249 238 217 201 200 190 212 225 216
306 274 297 208 236 239 249 253 260 267 277 275 258 261 270 276 259 257 229 230 235 239 218 213 226 241 249 213 209 220 215 227 238 229 230 251 248 250 276 165 177 216 210 214 230
292 288 278 280 264 259 266 266 264 262 257 263 268 270 259 261 267 271 270 250 232 223 228 224 216 227 240 247 218 210 224 222 233 251 252 234 243 259 257 179 207 197 209 206 149
289 298 298 252 244 252 266 273 279 274 267 264 281 279 265 264 256 265 272 277 250 237 83 203 242 218 235 230 229 213 214 221 229 231 240 247 235 249 230 178 255 196 210 221 201
268 283 314 308 298 336 332 315 305 293 288 309 313 292 319 273 258 256 258 270 266 249 217 226 243 247 220 249 230 233 219 221 223 236 240 235 245 236 247 246 198 187 191 229 210
268 304 328 302 298 299 280 266 275 288 284 305 281 293 317 304 346 321 329 282 255 250 229 222 230 251 249 231 241 243 231 221 221 226 238 251 255 241 244 255 221 187 198 209 219
236 272 296 290 290 294 296 292 334 302 275 291 290 286 291 314 323 310 294 287 287 279 258 206 229 227 240 239 242 238 242 239 232 223 229 236 249 261 263 252 250 210 211 201 201